Home   Weather   Rothesay   Past weeks
Flag for Canada

Past Weather in Rothesay, New Brunswick, Canada — Yesterday and Last 2 Weeks

Now
34 °F

Partly sunny.


Feels Like: 34 °F
Forecast: 53 / 34 °F
Wind: No wind

Location: Saint John

Current Time: Oct 22, 2019 at 9:17:33 am

Latest Report: Oct 22, 2019 at 8:00 am


Visibility: 15 mi

Pressure: 30.27 "Hg

Humidity: 100%

Dew Point: 34 °F

Location of RothesayLocation

Past Weather in Rothesay — Graph

°F

Rothesay Temperature Yesterday

Maximum temperature yesterday: 59 °F (at 2:00 pm)
Minimum temperature yesterday: 34 °F (at 1:00 am)
Average temperature yesterday: 44 °F

High & Low Weather Summary for the Past Weeks

 TemperatureHumidityPressure
High63 °F (Oct 9, 11:00 am)100% (Oct 7, 8:00 am)30.47 "Hg (Oct 7, 8:00 am)
Low28 °F (Oct 16, 5:14 am)37% (Oct 11, 2:00 pm)29.16 "Hg (Oct 17, 1:00 pm)
Average49 °F85%30.01 "Hg
* Reported Oct 7 8:00 am — Oct 22 8:00 am, Rothesay. Weather by CustomWeather, © 2019

Note: Actual official high and low records may vary slightly from our data, if they occured in-between our weather recording intervals... More about our weather records

Advertising

Rothesay Weather History for the Previous 24 Hours

Scroll right to see more
 ConditionsComfort  
Time TempWeatherWind HumidityBarometerVisibility
8:00 am
Tue, Oct 22
34 °FPartly sunny.No wind100%30.27 "Hg15 mi
7:00 am34 °FFog.3 mph100%30.25 "Hg15 mi
6:00 am34 °FFog.3 mph100%30.24 "Hg15 mi
5:00 am32 °FFog.2 mph100%30.22 "Hg15 mi
4:00 am32 °FFog.2 mph100%30.21 "Hg15 mi
3:00 am34 °FFog.3 mph100%30.21 "Hg15 mi
2:09 am36 °FFog.2 mph100%30.22 "Hg15 mi
1:00 am36 °FPassing clouds.3 mph100%30.20 "Hg15 mi
12:00 am36 °FPassing clouds.3 mph93%30.20 "Hg8 mi
11:38 pm
Mon, Oct 21
34 °FFog.2 mph100%30.19 "Hg2 mi
11:23 pm36 °FFog.3 mph100%30.19 "Hg1 mi
10:38 pm36 °FFog.No wind100%30.20 "Hg3 mi
10:00 pm36 °FClear.2 mph100%30.19 "Hg15 mi
9:00 pm37 °FClear.No wind100%30.19 "Hg15 mi
8:00 pm41 °FClear.2 mph93%30.16 "Hg15 mi
7:00 pm48 °FClear.3 mph87%30.16 "Hg15 mi
6:00 pm52 °FSunny.5 mph82%30.14 "Hg15 mi
5:00 pm55 °FPassing clouds.6 mph72%30.12 "Hg15 mi
4:00 pm57 °FPassing clouds.10 mph67%30.11 "Hg15 mi
3:00 pm59 °FPassing clouds.5 mph48%30.10 "Hg15 mi
2:00 pm59 °FPassing clouds.7 mph48%30.10 "Hg15 mi
1:00 pm57 °FPassing clouds.7 mph55%30.11 "Hg15 mi
12:00 pm55 °FPassing clouds.6 mph67%30.14 "Hg15 mi
11:00 am54 °FPassing clouds.5 mph67%30.16 "Hg15 mi
10:00 am50 °FPassing clouds.2 mph76%30.16 "Hg15 mi
9:00 am41 °FScattered clouds.No wind100%30.15 "Hg15 mi
Weather by CustomWeather, © 2019

See weather overview